Wind_Speed
38 41 43 43 42 39 43 48 54 51 48 43 40 36 27 28 24 17 9 5 8 8 15 19 25 26 26 23 19 17 15 14 17 19 20 20 20 17 17 15 19 22 23 25
39 41 43 46 47 46 45 47 50 56 53 48 44 39 32 32 29 20 16 6 15 1 9 12 19 25 27 32 29 21 16 15 16 16 18 18 17 17 18 19 21 23 25 31
40 42 44 49 52 51 50 50 48 53 55 53 49 43 39 36 32 26 23 19 16 11 6 11 13 16 21 25 31 29 29 21 18 16 15 15 16 17 20 20 23 26 27 29
37 42 45 50 52 55 57 54 51 52 59 58 53 49 44 39 36 29 26 22 18 14 13 8 11 12 14 19 24 31 32 33 27 19 16 13 14 19 20 21 25 27 27 31
36 39 45 49 52 55 57 57 54 54 54 59 59 53 49 45 42 36 35 28 23 16 16 15 9 11 9 12 18 22 25 26 28 27 22 18 18 19 24 25 26 33 36 37
32 36 42 46 49 51 56 61 61 60 56 59 63 58 54 46 49 44 38 34 30 24 20 19 15 10 10 5 12 17 19 24 25 27 25 21 23 23 27 31 34 36 36 38
24 29 36 42 46 48 48 60 65 63 61 61 61 65 59 60 54 49 43 42 36 31 26 22 20 16 11 8 4 12 15 17 20 21 28 25 23 26 27 28 33 31 31 34
23 23 29 33 37 48 48 51 64 65 67 60 63 63 65 62 56 54 50 47 42 36 33 26 24 21 18 15 9 6 10 11 13 17 19 24 27 24 27 29 28 27 25 25
23 23 25 27 33 41 53 52 59 70 67 64 58 62 69 69 64 59 56 51 48 43 38 31 27 28 23 19 16 9 7 8 11 15 14 16 22 28 25 24 24 20 20 21
23 20 23 24 28 40 53 61 60 66 70 67 61 44 72 75 69 63 61 57 52 47 43 37 32 28 29 26 21 18 13 10 9 13 15 16 18 19 24 27 26 23 21 18
25 20 19 23 25 28 42 58 68 66 69 73 76 68 69 76 75 70 66 62 58 53 49 43 38 34 28 28 24 23 21 15 14 15 16 17 15 16 19 16 17 19 20 20
29 21 20 20 20 17 31 35 65 70 72 77 78 61 76 76 79 75 70 67 62 59 54 49 42 38 32 30 27 25 24 21 17 19 18 18 17 16 16 14 13 13 9 12
28 22 21 20 21 15 37 32 47 65 74 73 76 78 79 80 80 79 75 72 68 63 57 53 46 43 40 36 30 28 27 25 21 21 20 20 19 17 15 14 13 13 11 11
26 24 24 20 18 21 18 36 39 38 66 79 79 78 76 74 79 83 81 78 72 67 63 58 52 40 48 42 36 32 30 29 27 24 21 19 18 18 18 17 16 15 14 13
24 24 25 19 14 12 9 46 53 46 61 85 80 80 62 59 89 86 84 80 77 72 68 67 64 62 55 50 46 41 37 35 32 30 28 26 22 22 22 20 19 17 15 14
24 24 27 21 14 11 11 20 65 59 50 66 61 59 104 84 82 86 86 84 82 75 73 70 67 64 61 58 52 47 44 42 40 37 34 30 28 27 24 24 22 20 22 21
27 26 24 23 21 14 11 10 30 72 65 67 78 54 59 101 91 89 87 88 86 83 76 73 67 72 66 64 60 57 52 49 46 43 41 38 36 34 31 28 28 27 24 23
29 26 26 24 23 17 16 18 11 29 69 82 88 96 74 77 94 93 88 90 90 88 87 78 67 66 70 70 70 65 60 56 52 49 48 45 42 42 40 38 35 34 31 27
29 30 29 28 25 19 18 20 20 13 32 64 85 94 100 76 90 94 91 90 92 92 87 86 79 74 79 75 76 72 65 63 60 56 53 50 50 50 49 45 39 43 41 34
32 33 31 28 28 24 22 26 25 24 24 36 53 83 100 104 89 84 96 93 95 95 94 88 91 81 82 80 78 75 70 68 65 62 60 57 55 57 58 55 52 51 47 44
33 31 29 27 28 30 27 33 29 32 26 30 45 58 80 100 106 92 94 98 97 99 97 97 93 89 82 81 81 78 75 73 71 70 67 65 61 61 63 64 63 59 55 54
30 28 25 27 31 34 35 39 34 38 36 36 41 49 66 89 100 106 96 97 100 99 101 95 95 95 87 81 80 81 79 76 78 72 71 63 62 69 67 67 68 68 67 64
26 24 25 33 37 37 40 39 43 43 38 41 45 46 53 75 98 106 100 101 100 100 99 100 101 96 93 90 80 79 71 79 69 73 78 74 72 69 72 74 77 72 69 67
25 27 31 34 38 41 43 48 47 39 36 38 48 51 49 60 82 106 108 102 104 100 102 103 98 96 95 89 85 78 79 71 81 77 79 85 85 84 77 80 84 78 74 72
26 30 33 36 37 44 48 43 38 34 33 34 43 51 53 53 65 91 109 108 104 106 103 102 106 95 94 94 93 84 83 86 80 80 89 86 81 84 82 88 89 82 80 78
29 31 37 38 44 45 37 33 31 34 34 35 38 46 54 54 58 72 98 109 111 109 104 104 106 103 96 91 91 97 85 84 92 82 78 88 95 89 91 90 85 90 86 85
Wind_Direction
242 240 237 233 232 232 229 225 223 220 221 214 211 212 209 205 217 215 172 128 46 41 69 59 63 65 63 70 78 88 110 109 113 107 106 100 86 82 86 107 134 145 149 144
245 243 238 232 229 229 229 225 224 222 221 219 213 209 204 207 214 204 180 127 279 206 96 69 69 64 64 70 72 81 95 112 112 110 107 100 89 70 84 107 123 136 139 136
245 244 240 234 228 228 228 228 224 223 222 222 218 213 204 207 209 202 201 182 203 186 173 111 81 71 65 66 71 82 82 89 92 103 102 102 80 73 83 102 125 135 135 129
245 244 243 238 231 226 227 228 225 221 221 221 219 213 209 206 207 199 203 191 184 191 181 160 120 92 77 64 68 77 82 69 72 84 90 96 86 78 85 103 112 125 131 132
247 247 246 246 240 232 227 226 224 225 221 221 220 215 210 206 203 201 206 197 191 193 190 185 163 128 102 72 70 72 77 77 67 74 87 85 87 86 92 100 115 123 129 129
255 251 250 249 247 241 230 222 220 221 222 219 219 217 212 207 205 207 202 198 198 191 198 198 189 170 145 112 82 82 80 78 75 72 84 95 94 93 98 109 121 126 127 129
263 262 259 250 243 241 236 225 218 219 220 220 217 217 213 212 204 206 207 201 202 196 199 200 194 191 178 171 117 94 90 84 81 86 78 90 107 107 110 114 125 128 132 138
270 280 277 264 247 235 230 228 220 216 218 219 219 217 217 216 208 203 207 202 198 203 206 200 198 195 194 186 178 132 111 104 97 90 90 84 93 122 124 127 134 133 134 139
283 279 293 280 256 234 226 221 220 216 218 217 220 219 217 217 213 206 205 204 200 203 209 201 199 199 198 199 196 214 170 137 121 116 116 116 103 101 123 135 144 145 148 152
296 293 296 293 275 246 224 218 216 216 211 213 212 223 222 219 215 211 206 206 204 204 208 209 203 203 200 207 218 224 221 192 160 145 134 125 120 118 114 111 109 114 135 141
305 292 301 312 296 258 234 220 213 210 210 209 211 209 221 218 217 211 208 206 206 204 206 210 208 207 202 208 211 217 223 220 192 165 156 151 142 138 138 126 120 112 109 107
305 297 303 312 306 211 214 215 217 211 207 210 211 203 223 218 216 214 209 206 207 207 206 209 212 212 206 213 210 204 209 213 210 185 171 160 160 158 152 152 147 128 135 123
298 291 306 313 317 242 223 197 207 210 213 210 211 213 225 218 215 214 210 206 207 209 210 206 209 215 211 216 211 205 202 204 204 200 189 178 172 168 164 166 169 153 167 160
293 292 300 313 324 338 225 212 177 187 210 209 209 212 224 224 219 214 211 207 206 208 210 207 202 216 218 213 215 210 205 206 200 203 205 194 185 184 187 184 185 182 180 185
286 290 299 308 310 321 295 181 193 194 199 207 210 213 202 223 221 215 212 209 207 210 208 209 207 208 213 214 215 210 210 211 212 213 210 213 210 207 202 199 201 203 204 209
285 285 292 299 290 293 311 217 203 197 190 204 190 211 220 221 215 214 211 210 209 208 207 212 211 211 214 215 216 216 215 214 215 216 217 220 220 217 214 208 209 211 211 213
284 286 289 288 285 288 300 308 218 212 198 192 196 209 226 218 215 216 213 211 211 207 209 212 215 217 215 216 217 216 216 218 218 219 220 222 225 221 220 222 227 226 225 229
284 287 283 284 276 284 309 300 299 227 214 210 211 206 215 218 213 216 211 212 212 212 210 210 215 218 216 216 217 218 219 219 222 224 226 227 230 231 233 234 233 237 240 240
280 286 285 276 272 274 275 294 284 275 227 221 222 218 217 211 214 214 212 214 213 213 213 210 212 216 218 217 217 219 221 220 223 225 229 232 237 235 235 236 241 245 243 246
280 284 277 268 266 273 286 290 280 285 267 220 222 221 221 217 217 214 215 213 215 215 213 212 213 215 222 221 218 217 217 222 225 227 229 231 236 240 239 240 240 243 241 243
282 277 271 265 268 276 289 285 279 280 286 248 233 222 219 216 216 217 215 215 216 216 215 216 215 214 217 222 223 222 222 223 227 229 231 234 236 239 242 242 241 244 245 245
275 271 265 271 270 280 281 280 280 282 269 253 243 230 221 213 212 215 215 214 216 218 217 217 215 219 217 220 224 227 226 226 229 229 234 236 242 244 244 243 245 246 247 245
269 266 273 274 279 282 281 280 283 279 263 244 236 235 227 217 212 213 214 213 216 218 218 213 217 220 219 219 223 228 228 229 227 232 233 232 229 239 243 248 245 245 246 247
270 276 277 279 283 283 286 286 282 272 258 245 234 231 230 223 217 213 215 214 214 215 219 216 218 221 221 220 218 225 225 230 234 226 232 238 236 238 242 240 249 245 246 251
279 281 287 289 290 292 291 284 275 266 256 246 237 231 228 227 221 217 215 216 216 215 218 219 218 218 221 221 218 221 228 227 227 234 232 231 239 241 243 240 246 253 251 250
281 285 294 296 299 296 290 283 272 264 252 243 238 232 228 226 226 221 218 217 217 216 216 219 222 218 217 220 222 219 224 231 228 233 237 240 241 245 246 244 247 253 254 255
Height
10894 10896 10902 10908 10911 10919 10921 10929 10934 10943 10948 10955 10960 10965 10970 10973 10976 10979 10981 10980 10980 10979 10975 10971 10967 10963 10957 10950 10946 10944 10944 10946 10946 10946 10945 10945 10946 10945 10943 10942 10942 10945 10947 10950
10884 10887 10892 10897 10902 10905 10912 10917 10925 10932 10939 10947 10953 10959 10965 10969 10973 10977 10979 10979 10985 10982 10979 10976 10972 10968 10965 10958 10954 10950 10949 10949 10950 10949 10948 10948 10949 10948 10947 10947 10947 10949 10951 10954
10874 10876 10880 10884 10889 10896 10901 10906 10916 10924 10934 10939 10946 10953 10959 10964 10968 10974 10976 10977 10981 10981 10981 10979 10976 10974 10971 10966 10961 10957 10956 10955 10954 10953 10952 10952 10953 10952 10952 10951 10952 10954 10957 10960
10863 10865 10868 10871 10878 10884 10887 10897 10906 10912 10918 10930 10938 10946 10953 10958 10964 10970 10974 10976 10977 10980 10982 10981 10979 10977 10976 10971 10967 10964 10962 10960 10958 10957 10956 10955 10956 10957 10957 10956 10957 10960 10962 10965
10855 10857 10858 10859 10864 10871 10878 10888 10896 10903 10911 10920 10927 10939 10947 10952 10959 10964 10968 10973 10975 10978 10979 10980 10980 10980 10978 10977 10973 10970 10967 10966 10965 10963 10962 10961 10961 10961 10961 10962 10964 10966 10969 10972
10846 10846 10847 10849 10852 10858 10865 10874 10882 10890 10900 10909 10917 10928 10937 10946 10951 10957 10963 10968 10971 10975 10977 10979 10981 10981 10981 10980 10978 10975 10974 10972 10972 10971 10968 10967 10967 10967 10969 10969 10971 10974 10977 10980
10837 10836 10836 10837 10841 10845 10853 10861 10870 10880 10889 10894 10908 10915 10928 10929 10941 10950 10957 10963 10966 10971 10974 10977 10979 10981 10982 10983 10982 10979 10978 10977 10977 10977 10977 10974 10973 10973 10975 10977 10980 10982 10985 10988
10829 10829 10827 10828 10829 10833 10840 10850 10860 10870 10876 10889 10894 10909 10916 10922 10933 10941 10948 10955 10961 10966 10970 10975 10977 10979 10981 10984 10984 10982 10982 10982 10982 10982 10982 10983 10981 10980 10981 10984 10987 10989 10992 10993
10821 10822 10821 10817 10815 10817 10824 10835 10842 10854 10867 10880 10891 10900 10906 10912 10922 10932 10939 10948 10954 10959 10964 10971 10974 10976 10979 10982 10985 10985 10985 10985 10985 10986 10988 10988 10988 10987 10987 10989 10992 10993 10995 10997
10813 10813 10811 10807 10802 10801 10805 10816 10829 10839 10858 10871 10885 10896 10892 10900 10912 10923 10931 10939 10948 10954 10959 10966 10971 10973 10977 10980 10983 10985 10986 10987 10988 10988 10989 10992 10992 10993 10994 10993 10995 10997 10997 10998
10806 10805 10804 10797 10790 10788 10794 10801 10810 10823 10843 10853 10865 10871 10874 10889 10900 10911 10922 10930 10939 10947 10952 10959 10965 10970 10974 10978 10981 10983 10985 10988 10989 10989 10990 10992 10995 10996 10997 10998 10999 11000 11000 11001
10797 10797 10795 10789 10785 10781 10776 10786 10798 10810 10821 10837 10849 10862 10858 10871 10886 10901 10912 10921 10930 10937 10945 10953 10962 10968 10971 10975 10978 10980 10984 10986 10989 10990 10991 10993 10995 10997 10998 10999 11001 11001 11003 11005
10787 10788 10787 10783 10777 10774 10771 10772 10782 10800 10811 10829 10837 10845 10841 10857 10871 10886 10900 10912 10921 10930 10938 10948 10957 10963 10967 10971 10974 10977 10980 10983 10987 10990 10991 10992 10995 10997 10998 11000 11001 11002 11005 11007
10778 10778 10776 10777 10772 10762 10763 10771 10777 10777 10787 10807 10821 10835 10858 10859 10865 10874 10887 10899 10911 10920 10929 10940 10953 10963 10962 10965 10971 10974 10976 10979 10982 10986 10989 10991 10993 10994 10997 11000 11000 11001 11003 11006
10771 10769 10768 10768 10767 10763 10762 10764 10770 10770 10776 10791 10814 10828 10825 10819 10840 10859 10873 10889 10901 10910 10919 10929 10938 10946 10952 10956 10962 10966 10970 10973 10977 10980 10983 10987 10990 10992 10993 10996 10998 10999 11002 11003
10763 10761 10759 10759 10761 10761 10759 10761 10761 10763 10773 10782 10790 10806 10807 10811 10826 10841 10859 10876 10885 10895 10909 10917 10925 10933 10940 10946 10954 10960 10963 10967 10970 10973 10978 10982 10984 10986 10989 10992 10994 10996 10998 11001
10753 10753 10750 10750 10749 10751 10752 10751 10753 10760 10763 10765 10773 10777 10781 10797 10812 10825 10842 10859 10871 10884 10894 10904 10912 10919 10929 10935 10943 10947 10952 10957 10962 10966 10971 10975 10978 10981 10983 10987 10988 10990 10992 10994
10743 10743 10742 10743 10741 10742 10742 10740 10741 10742 10753 10752 10753 10761 10765 10781 10798 10812 10827 10843 10856 10866 10875 10887 10900 10907 10914 10922 10929 10936 10942 10947 10953 10958 10963 10967 10970 10973 10976 10978 10980 10983 10986 10989
10734 10733 10732 10731 10731 10734 10736 10733 10731 10732 10735 10743 10746 10755 10760 10771 10781 10796 10812 10826 10840 10849 10861 10873 10881 10887 10895 10906 10914 10922 10931 10937 10943 10948 10953 10958 10960 10964 10966 10969 10972 10974 10977 10981
10725 10723 10722 10722 10722 10722 10723 10722 10721 10720 10721 10729 10720 10736 10741 10757 10767 10787 10797 10808 10820 10832 10843 10856 10865 10876 10883 10893 10900 10909 10917 10925 10931 10936 10941 10946 10949 10953 10957 10959 10962 10964 10967 10970
10715 10712 10712 10712 10712 10711 10714 10710 10709 10707 10710 10710 10707 10715 10720 10737 10753 10763 10775 10791 10802 10814 10826 10836 10848 10860 10871 10880 10890 10897 10904 10913 10917 10922 10928 10933 10938 10941 10943 10945 10949 10952 10956 10957
10704 10703 10702 10702 10701 10701 10701 10695 10695 10694 10694 10694 10695 10698 10705 10714 10727 10744 10757 10772 10784 10796 10809 10822 10833 10845 10858 10867 10878 10883 10892 10899 10902 10911 10916 10923 10926 10926 10927 10930 10933 10937 10940 10944
10694 10694 10693 10691 10690 10688 10683 10681 10679 10678 10678 10678 10681 10684 10690 10698 10710 10726 10739 10754 10765 10780 10793 10806 10817 10829 10840 10852 10864 10869 10875 10883 10889 10896 10898 10900 10906 10908 10908 10912 10916 10922 10926 10930
10685 10684 10683 10681 10678 10673 10668 10664 10661 10660 10661 10664 10666 10670 10677 10684 10694 10708 10720 10736 10748 10762 10774 10788 10801 10812 10824 10835 10849 10853 10863 10869 10871 10878 10880 10882 10885 10892 10895 10897 10900 10909 10912 10916
10677 10673 10670 10667 10664 10657 10651 10647 10644 10644 10646 10649 10652 10657 10664 10670 10679 10690 10705 10718 10730 10743 10757 10770 10781 10795 10805 10817 10829 10838 10843 10849 10851 10859 10865 10866 10869 10876 10879 10882 10886 10892 10896 10900
10668 10665 10660 10654 10650 10642 10636 10631 10630 10629 10631 10635 10639 10645 10651 10659 10665 10674 10686 10698 10712 10726 10739 10751 10762 10777 10789 10798 10807 10817 10825 10827 10833 10839 10845 10849 10853 10859 10863 10867 10871 10875 10876 10880